Location: Boiro
(42.6475°N, 8.8834°W)
Time: 00:35:15
(UTC+01:00)

A-11 Canister half - Pass Details

Date: 06 December 2021
Orbit: 1516 x 1684 km, 47.2° (Epoch: 18 January)

Event Time Altitude Azimuth Distance (km) Brightness Sun altitude
Rises 15:44:24 0° 294° (WNW) 4,915 11.8 17.5°
Reaches altitude 10° 15:48:14 10° 282° (WNW) 3,937 11.5 17.1°
Maximum altitude 15:55:59 26° 232° (SW) 2,875 12.3 16.3°
Drops below altitude 10° 16:03:45 10° 181° (S) 3,927 12.2 15.4°
Sets 16:07:36 0° 169° (S) 4,900 12.3 15.0°
